Regional Weather Roundup
Issued by NWS Newport/Morehead, NC

Current Version | Previous Version | Text Only | Print | Product List | Glossary Off
Versions: 1 2 3 4 5 6 7 8 9 10 11 12 13 14 15 16 17 18 19 20 21 22 23 24 25 26 27 28 29 30 31 32 33 34 35 36 37 38 39 40 41 42 43 44 45 46 47 48 49 50
560 ASUS42 KMHX 200324 RWRMHX WEATHER ROUNDUP FOR EASTERN NORTH CAROLINA NATIONAL WEATHER SERVICE NEWPORT/MOREHEAD CITY NC 1000 PM EST THU JAN 19 2017 NOTE: "FAIR" INDICATES FEW OR NO CLOUDS BELOW 12,000 FEET WITH NO SIGNIFICANT WEATHER AND/OR OBSTRUCTIONS TO VISIBILITY NCZ015>017-031-032-045>047-102-103-200400- NORTH COAST CITY SKY/WX TMP DP RH WIND PRES REMARKS EDENTON CLOUDY 45 42 89 CALM 30.05R ELIZABETH CITY CLOUDY 42 40 92 S3 30.04S KITTY HAWK NOT AVBL MANTEO FOG 39 39 100 CALM 30.04S VSB 1/2 $$ NCZ045>047-081-094-103-104-200400- CENTRAL COAST CITY SKY/WX TMP DP RH WIND PRES REMARKS FRISCO CLOUDY 41 39 93 CALM 30.04S FOG $$ NCZ095-097-098-100-101-200400- SOUTHERN COAST CITY SKY/WX TMP DP RH WIND PRES REMARKS BEAUFORT MOCLDY 45 43 93 CALM 30.03S CEDAR ISLAND NOT AVBL JACKSONVILLE CLEAR 44 43 96 E5 30.00F PINEY ISLAND PTCLDY N/A N/A N/A NE6 30.03S WILMINGTON CLEAR 43 43 100 E3 30.00F $$ NCZ011>013-027>030-043-044-078>080-089-090>093-098-200400- COASTAL PLAIN CITY SKY/WX TMP DP RH WIND PRES REMARKS AHOSKIE N/A 38 37 97 CALM 30.03S CLINTON CLEAR 48 45 90 CALM 30.00F ELIZABETHTOWN CLEAR 50 45 83 CALM 29.99F GOLDSBORO CLOUDY 45 44 99 E5 29.98F GREENVILLE PTCLDY 41 41 100 CALM 30.04S HAVELOCK PTCLDY 45 41 86 CALM 30.03F KENANSVILLE CLEAR 41 41 100 CALM 30.01F KINSTON CLOUDY 45 41 87 CALM 30.02F NEW BERN PTCLDY 42 40 92 CALM 30.04S RICHLANDS CLEAR 42 41 96 CALM 30.01F ROCKY MOUNT CLOUDY 44 43 96 CALM 30.01S WASHINGTON PTCLDY 41 40 95 CALM N/A WHITEVILLE PTCLDY 52 46 78 CALM 29.99R $$ AMZ130-135-150-152-154-156-158-170-250-252-270-ANZ085-086-088-633-658-670-200400- MARINE OBSERVATIONS STATION/POSITION TIME TEMP WIND PRES WAVE SWELL AIR SEA DIR/SP/G HT/PER HT/PER (UTC) (F) (DEG/KT/KT) (MB) (FT/S) (FT/S) CHESAPEAKE LIGHT NOT AVBL 64 E VA BEACH 0250 49 58 30/ 6/ 8 1016.7 5/11 5/11 DUCK 0300 46 45 160/ 4/ 5 1016.4 2 E DUCK 0300 45 N/A 4/10 2/11 OREGON INLET 0300 44 49 CALM / 1 1017.0 13E OREGON INLT NOT AVBL HATTERAS CG 0300 48 55 80/ 4/ 6 1016.8 DIAMOND BUOY 0250 55 77 40/ 6/ 10 1016.9 4/10 3/10 CAPE LOOKOUT 0300 57 100/ 2/ 3 1016.3 BEAUFORT LAB 0300 49 51 CALM / 1 1015.7 30 SE NEW RVR IN 0308 59 62 110/ 6/ 8 1016.5 30 SE NEW RVR IN 0243 62 N/A 2/ 9 27 SE WRIGHTSVLE 0308 61 71 100/ 10/ 14 1015.5 5 SE WRIGHTSVLE NOT AVBL 225 S CAPE HAT 0250 67 71 360/ 4/ 6 1016.0 6/ 8 7/ 8 41 SE CHARLESTON 0250 68 71 80/ 12/ 14 1014.1 3/ 8 2/ 8 $$

USA.gov is the U.S. government's official web portal to all federal, state and local government web resources and services.